Location: Bilsen
(53.7722°N, 9.8765°E)
Time: 20:35:47
(UTC+00:00)

Cosmos 1869 - Pass Details

Date: 18 February 2020
Orbit: 525 x 558 km, 82.5° (Epoch: 03 April)

Event Time Altitude Azimuth Distance (km) Brightness Sun altitude
Rises 05:51:22 0° 222° (SW) 2,712 6.5 -7.0°
Reaches altitude 10° 05:53:49 10° 235° (SW) 1,818 5.6 -6.7°
Maximum altitude 05:57:10 25° 293° (WNW) 1,113 4.3 -6.2°
Drops below altitude 10° 06:00:32 10° 350° (N) 1,812 5.7 -5.7°
Sets 06:02:58 0° 4° (N) 2,703 6.8 -5.4°
